User: anonymous   Login
Location: Unspecified
(0.0000°N, 0.0000°E)
Time: 19:20:31
(UTC+00:00)
Language:

PAKSAT 1R - Orbit

View from above orbital plane
View from above orbital plane
View from above satellite
View from above satellite

Ground track
Ground track

The orbit data is extracted from the following two-line orbital elements,

1 37779U 11042A   19047.18692660  .00000146  00000-0  00000+0 0  9990
2 37779   0.0254 149.8047 0002650 182.5901 278.7073  1.00271320 27423
Epoch (UTC): 16 February 2019 04:29:10
Eccentricity: 0.0002650
inclination: 0.0254°
perigee height: 35775 km
apogee height: 35797 km
right ascension of ascending node: 149.8047°
argument of perigee: 182.5901°
revolutions per day: 1.00271320
mean anomaly at epoch: 278.7073°
orbit number at epoch: 2742

The dashed part of the orbit path shows where the satellite is in the earth's shadow,  

DLR